This is the latest recevied weather packets stored in our database for station/object KD7CTY. If no packets are shown the sender has not sent any weather packets the latest 10 day(s).
| Time | Temp. | Humidity | Pressure | Rain* | Wind** | Luminosity | Snow |
|---|---|---|---|---|---|---|---|
| 1777531804 | 10° C | 88% | 1021.2 hPa | 0 mm | - | 0 W/m² | - |
| 1777531499 | 10° C | 88% | 1021.4 hPa | 0 mm | - | 0 W/m² | - |
| 1777531197 | 10° C | 87% | 1021.3 hPa | 0 mm | - | 0 W/m² | - |
| 1777530895 | 10° C | 86% | 1021.2 hPa | 0 mm | - | 0 W/m² | - |
| 1777530592 | 10° C | 86% | 1021.1 hPa | 0 mm | - | 0 W/m² | - |
| 1777530289 | 10° C | 86% | 1021.1 hPa | 0 mm | - | 0 W/m² | - |
| 1777529985 | 10° C | 88% | 1021.3 hPa | 0 mm | - | 0 W/m² | - |
| 1777529682 | 9.44° C | 90% | 1021.3 hPa | 0 mm | - | 0 W/m² | - |
| 1777529379 | 9.44° C | 89% | 1021.1 hPa | 0 mm | - | 0 W/m² | - |
| 1777529076 | 10° C | 88% | 1021.3 hPa | 0 mm | - | 0 W/m² | - |
| 1777528771 | 10° C | 87% | 1021.1 hPa | 0 mm | - | 0 W/m² | - |
| 1777528468 | 10° C | 86% | 1021.1 hPa | 0 mm | - | 0 W/m² | - |
| 1777528167 | 10.56° C | 84% | 1021.1 hPa | 0 mm | - | 0 W/m² | - |
| 1777527864 | 11.11° C | 83% | 1021.3 hPa | 0 mm | - | 0 W/m² | - |
| 1777527559 | 11.67° C | 80% | 1021.2 hPa | 0 mm | - | 0 W/m² | - |
| 1777527255 | 11.67° C | 81% | 1021.3 hPa | 0 mm | - | 0 W/m² | - |
| 1777526950 | 11.11° C | 81% | 1021.3 hPa | 0 mm | - | 0 W/m² | - |
| 1777526646 | 11.11° C | 82% | 1021.4 hPa | 0 mm | - | 0 W/m² | - |
| 1777526341 | 10.56° C | 83% | 1021.4 hPa | 0 mm | - | 0 W/m² | - |
| 1777526037 | 10.56° C | 85% | 1021.3 hPa | 0 mm | - | 0 W/m² | - |
| 1777525733 | 11.11° C | 83% | 1021.4 hPa | 0 mm | - | 0 W/m² | - |
| 1777525430 | 10.56° C | 86% | 1021.3 hPa | 0 mm | - | 0 W/m² | - |
| 1777525126 | 10.56° C | 85% | 1021.4 hPa | 0 mm | - | 0 W/m² | - |
| 1777524824 | 11.11° C | 84% | 1021.3 hPa | 0 mm | - | 0 W/m² | - |
| 1777524522 | 11.67° C | 82% | 1021.4 hPa | 0 mm | - | 0 W/m² | - |
* Rain latest hour (hover to see other rain measurements)
** Current wind speed in m/s (hover to see current wind gust speed)